This is the latest recevied weather packets stored in our database for station/object DELTON-WX. If no packets are shown the sender has not sent any weather packets the latest 1 day(s).
| Time | Temp. | Humidity | Pressure | Rain* | Wind** | Luminosity | Snow |
|---|---|---|---|---|---|---|---|
| 1778044548 | 6.11° C | 68% | 976.2 hPa | 0 mm | 2.24 m/s, 323° | - | - |
| 1778043684 | 6.67° C | 68% | 976.2 hPa | 0 mm | 1.79 m/s, 336° | - | - |
| 1778042748 | 6.67° C | 63% | 977.4 hPa | 0 mm | 1.79 m/s, 317° | - | - |
| 1778041863 | 6.67° C | 68% | 976.8 hPa | 0 mm | 1.79 m/s, 299° | - | - |
| 1778040948 | 6.67° C | 68% | 976.8 hPa | 0 mm | 1.34 m/s, 287° | - | - |
| 1778040087 | 6.67° C | 68% | 976.8 hPa | 0 mm | 1.79 m/s, 264° | - | - |
| 1778039146 | 6.67° C | 62% | 976.4 hPa | 0 mm | 1.79 m/s, 264° | - | - |
| 1778037347 | 7.78° C | 57% | 976.4 hPa | 0 mm | 1.34 m/s, 262° | - | - |
| 1778036488 | 7.78° C | 57% | 976.4 hPa | 0 mm | 1.34 m/s, 246° | - | - |
| 1778035547 | 7.78° C | 53% | 976.4 hPa | 0 mm | 1.34 m/s, 242° | - | - |
| 1778034665 | 7.78° C | 50% | 976.6 hPa | 0 mm | 1.34 m/s, 274° | - | - |
| 1778033746 | 7.78° C | 50% | 976.6 hPa | 0 mm | 1.79 m/s, 276° | - | - |
| 1778032872 | 8.33° C | 50% | 976.6 hPa | 0 mm | 0.89 m/s, 279° | - | - |
| 1778031947 | 8.33° C | 45% | 976.1 hPa | 0 mm | 1.34 m/s, 290° | - | - |
| 1778031068 | 8.33° C | 45% | 976.1 hPa | 0 mm | 0.89 m/s, 274° | - | - |
| 1778030146 | 7.78° C | 45% | 976 hPa | 0 mm | 1.79 m/s, 288° | - | - |
| 1778029275 | 7.78° C | 45% | 976 hPa | 0 mm | 1.79 m/s, 300° | - | - |
| 1778028345 | 8.33° C | 39% | 976 hPa | 0 mm | 2.24 m/s, 303° | - | - |
| 1778027460 | 8.89° C | 39% | 976.6 hPa | 0 mm | 2.68 m/s, 301° | - | - |
| 1778026546 | 9.44° C | 39% | 976.6 hPa | 0 mm | 2.68 m/s, 299° | - | - |
| 1778025681 | 10° C | 39% | 976.6 hPa | 0 mm | 3.13 m/s, 299° | - | - |
| 1778024746 | 10° C | 38% | 976.3 hPa | 0 mm | 3.58 m/s, 301° | - | - |
| 1778023863 | 10.56° C | 37% | 976.3 hPa | 0 mm | 3.58 m/s, 298° | - | - |
| 1778022947 | 10.56° C | 37% | 976.3 hPa | 0 mm | 4.02 m/s, 296° | - | - |
| 1778022074 | 10.56° C | 37% | 976.3 hPa | 0 mm | 4.47 m/s, 294° | - | - |
* Rain latest hour (hover to see other rain measurements)
** Current wind speed in m/s (hover to see current wind gust speed)